sat.trackr.live / text

‹ back to catalog

HULIANWANG DIGUI-12

NORAD 62972 · 2025-030B

PAYLOAD ACTIVE UNKNOWN

§ Identity

Operator
Country
PRC
Launch date
2025-02-11
Launch site
WSC
Launch vehicle
Mass (kg)
RCS (m²)

External: N2YO · Heavens-Above · Gunter

§ Orbital elements

Epoch: 2026-05-25T03:55:27.713280Z

Period
108.33 min
Inclination
50.0034°
Eccentricity
0.0001291
Mean motion
13.29321791 rev/d
Perigee alt
1,148.4 km
Apogee alt
1,150.3 km
Semi-major
7,527.5 km
B*
7.3561e-5
RAAN
318.5310°
Arg perigee
96.2468°
Mean anomaly
263.8551°
Rev number
6,279

§ Raw data

HULIANWANG DIGUI-121 62972U 25030B   26145.16351520 -.00000090  00000+0  73561-4 0  99922 62972  50.0034 318.5310 0001291  96.2468 263.8551 13.29321791 62791

JSON: /api/v1/satellites/62972 · /tle

For live sub-satellite position, see the globe view (requires WebGL).

§ Visibility from observer

Set your observer location to see the next 7 days of passes ≥ 10°. The values pass through the URL so the page stays shareable.

No JS? Fill the form by hand. The geolocation button needs JavaScript.